Blue Canyon, CA

6:27 AM PST on December 17, 2017 (GMT -0800)
Blue Canyon-Nyack

Weather History for KBLU - September, 2013

Change the Weather History Date:

Monday, September 30, 2013

  Actual Average Record
Temperature  
Mean Temperature 50 °F -  
Max Temperature 55 °F 69 °F 85 °F (1980)
Min Temperature 46 °F 51 °F 27 °F (1971)
Degree Days  
Heating Degree Days 14    
Moisture  
Dew Point 47 °F    
Average Humidity 91    
Maximum Humidity 100    
Minimum Humidity 71    
Precipitation  
Precipitation 0.02 in - - ()
Sea Level Pressure  
Sea Level Pressure 30.10 in    
Wind  
Wind Speed 10 mph (SSE)    
Max Wind Speed 16 mph    
Max Gust Speed 26 mph    
Visibility 5 miles    
Events Fog , Rain    
Averages and records for this station are not official NWS values.
T = Trace of Precipitation, MM = Missing Value Source: NWS Daily Summary

Daily Weather History Graph

Daily Weather History Graph

Search for Another Location

Airport or City:

Trip Planner

Search our weather history database for the weather conditions in past years. The results will help you decide how hot, cold, wet, or windy it might be!

Date:

Astronomy

Sep. 30, 2013 Rise Set
Actual Time 6:58 AM PDT 6:46 PM PDT
Civil Twilight 6:31 AM PDT 7:13 PM PDT
Nautical Twilight 6:00 AM PDT 7:44 PM PDT
Astronomical Twilight 5:29 AM PDT 8:15 PM PDT
Moon 2:41 AM PDT (9/30) 4:18 PM PDT (9/30)
Length of Visible Light 12h 41m
Length of Day
11h 48m
Waning Crescent, 18% of the Moon is Illuminated
Sep 30
Waning Crescent
Oct 4
New
Oct 11
First Quarter
Oct 18
Full
Oct 26
Last Quarter

Hourly Weather History & Observations

Time (PDT) Temp. Windchill Dew Point Humidity Pressure Visibility Wind Dir Wind Speed Gust Speed Precip Events Conditions
12:29 AM 48.2 °F - 48.2 °F 100% 30.17 in 2.0 mi South 11.5 mph 20.7 mph N/A   Overcast
12:40 AM 48.2 °F - 46.4 °F 93% 30.17 in 5.0 mi South 16.1 mph - N/A   Overcast
12:52 AM 48.0 °F - 46.9 °F 96% 30.03 in 1.2 mi South 10.4 mph 19.6 mph N/A   Overcast
1:05 AM 48.2 °F - 46.4 °F 93% 30.17 in 2.5 mi South 10.4 mph 21.9 mph N/A   Overcast
1:12 AM 48.2 °F - 46.4 °F 93% 30.17 in 4.0 mi South 15.0 mph 20.7 mph N/A   Overcast
1:52 AM 48.0 °F - 46.9 °F 96% 30.02 in 10.0 mi SSE 12.7 mph 26.5 mph N/A   Overcast
2:23 AM 48.2 °F - 46.4 °F 93% 30.17 in 1.8 mi South 9.2 mph 19.6 mph N/A   Overcast
2:31 AM 48.2 °F - 46.4 °F 93% 30.17 in 3.0 mi South 11.5 mph 17.3 mph N/A   Overcast
2:42 AM 48.2 °F - 46.4 °F 93% 30.16 in 1.5 mi South 11.5 mph 20.7 mph N/A   Overcast
2:44 AM 48.2 °F - 46.4 °F 93% 30.16 in 0.8 mi South 11.5 mph 20.7 mph N/A   Overcast
2:52 AM 48.0 °F - 46.9 °F 96% 30.01 in 0.2 mi South 13.8 mph 20.7 mph N/A Fog Fog
3:11 AM 46.4 °F 41.1 °F 46.4 °F 100% 30.15 in 0.5 mi South 11.5 mph 24.2 mph N/A Fog Fog
3:22 AM 46.4 °F 40.4 °F 46.4 °F 100% 30.15 in 0.2 mi South 13.8 mph 19.6 mph N/A Fog Fog
3:52 AM 46.9 °F - 46.9 °F 100% 30.01 in 0.2 mi South 10.4 mph - N/A Fog Fog
4:52 AM 46.9 °F - 46.9 °F 100% 30.01 in 0.2 mi South 11.5 mph 20.7 mph 0.01 in Fog Fog
5:52 AM 46.9 °F - 46.0 °F 97% 30.02 in 0.2 mi SSE 12.7 mph 20.7 mph N/A Fog Fog
6:00 AM 46.4 °F 41.5 °F 46.4 °F 100% 30.14 in 0.5 mi SSE 10.4 mph 20.7 mph N/A Fog Fog
6:33 AM 46.4 °F 41.5 °F 46.4 °F 100% 30.14 in 1.2 mi SSE 10.4 mph - N/A   Overcast
6:52 AM 46.0 °F 41.0 °F 46.0 °F 100% 30.04 in 1.2 mi South 10.4 mph - 0.00 in Rain Light Rain
6:55 AM 46.4 °F 41.1 °F 46.4 °F 100% 30.14 in 2.0 mi South 11.5 mph - 0.00 in Rain Light Rain
7:04 AM 46.4 °F 41.9 °F 46.4 °F 100% 30.15 in 1.2 mi South 9.2 mph - 0.00 in   Overcast
7:12 AM 46.4 °F 41.9 °F 46.4 °F 100% 30.15 in 0.5 mi South 9.2 mph - 0.00 in Fog , Rain Light Rain
7:37 AM 46.4 °F 42.4 °F 46.4 °F 100% 30.16 in 0.2 mi South 8.1 mph - 0.00 in Fog , Rain Light Rain
7:52 AM 46.9 °F - 46.9 °F 100% 30.05 in 0.2 mi SSE 9.2 mph - 0.01 in Fog Fog
8:52 AM 46.9 °F - 46.9 °F 100% 30.06 in 0.2 mi South 8.1 mph - N/A Fog Fog
8:59 AM 46.4 °F 42.4 °F 46.4 °F 100% 30.17 in 0.5 mi SSE 8.1 mph - N/A Fog Fog
9:10 AM 46.4 °F 43.5 °F 46.4 °F 100% 30.17 in 0.2 mi SSE 5.8 mph - N/A Fog Fog
9:25 AM 46.4 °F 45.2 °F 46.4 °F 100% 30.17 in 0.5 mi SSE 3.5 mph - N/A Fog Fog
9:32 AM 48.2 °F - 46.4 °F 93% 30.17 in 1.5 mi SSE 4.6 mph - N/A   Overcast
9:47 AM 48.2 °F - 46.4 °F 93% 30.17 in 3.0 mi SSE 8.1 mph - N/A   Overcast
9:52 AM 48.0 °F - 46.9 °F 96% 30.06 in 4.0 mi Variable 5.8 mph - N/A   Overcast
10:01 AM 48.2 °F - 48.2 °F 100% 30.17 in 2.0 mi Variable 4.6 mph - N/A   Overcast
10:09 AM 48.2 °F - 48.2 °F 100% 30.18 in 10.0 mi SSE 8.1 mph - N/A   Overcast
10:52 AM 48.9 °F - 48.0 °F 97% 30.07 in 10.0 mi South 10.4 mph - N/A   Overcast
11:13 AM 50.0 °F - 46.4 °F 87% 30.18 in 10.0 mi South 9.2 mph - N/A   Overcast
11:52 AM 52.0 °F - 46.9 °F 83% 30.06 in 10.0 mi Variable 5.8 mph - N/A   Overcast
12:52 PM 53.1 °F - 45.0 °F 74% 30.05 in 10.0 mi South 8.1 mph - N/A   Overcast
1:52 PM 54.0 °F - 45.0 °F 72% 30.04 in 10.0 mi South 6.9 mph - N/A   Overcast
2:52 PM 55.0 °F - 46.9 °F 74% 30.03 in 10.0 mi SSW 9.2 mph - N/A   Overcast
3:52 PM 55.0 °F - 48.0 °F 77% 30.03 in 10.0 mi South 9.2 mph - N/A   Overcast
4:16 PM 55.4 °F - 48.2 °F 77% 30.15 in 10.0 mi South 9.2 mph - N/A   Mostly Cloudy
4:52 PM 55.0 °F - 48.0 °F 77% 30.02 in 10.0 mi SSE 8.1 mph - N/A   Mostly Cloudy
5:00 PM 55.4 °F - 48.2 °F 77% 30.14 in 10.0 mi South 8.1 mph - N/A   Mostly Cloudy
5:32 PM 55.4 °F - 48.2 °F 77% 30.13 in 10.0 mi South 5.8 mph - N/A   Mostly Cloudy
5:52 PM 55.0 °F - 48.0 °F 77% 30.01 in 10.0 mi South 5.8 mph - N/A   Mostly Cloudy
6:52 PM 53.1 °F - 46.9 °F 80% 30.01 in 10.0 mi SSW 3.5 mph - N/A   Partly Cloudy
7:52 PM 51.1 °F - 48.0 °F 89% 30.01 in 10.0 mi Calm Calm - N/A   Partly Cloudy
8:52 PM 48.9 °F - 46.9 °F 93% 30.02 in 10.0 mi East 3.5 mph - N/A   Clear
9:52 PM 50.0 °F - 46.9 °F 89% 30.01 in 10.0 mi ESE 3.5 mph - N/A   Clear
10:52 PM 51.1 °F - 44.1 °F 77% 29.99 in 10.0 mi ESE 3.5 mph - N/A   Clear
11:52 PM 51.1 °F - 42.1 °F 71% 29.96 in 10.0 mi SE 4.6 mph - N/A   Clear